Home   Weather   San Juan   Past weeks
Flag for Puerto Rico

Past Weather in San Juan, Puerto Rico — Yesterday and Last 2 Weeks

Now
76 °F

Passing clouds.


Feels Like: 77 °F
Forecast: 72 / 81 °F
Wind: 5 mph from Southeast

Location: Luis Munoz Marin

Current Time: Jan 15, 2019 at 9:48:48 pm

Latest Report: Jan 15, 2019 at 8:56 pm


Visibility: 10 mi

Pressure: 30.07 "Hg

Humidity: 72%

Dew Point: 66 °F

Location of San JuanLocation

Past Weather in San Juan — Graph

°F

San Juan Temperature Yesterday

Maximum temperature yesterday: 83 °F (at 11:56 am)
Minimum temperature yesterday: 72 °F (at 5:56 am)
Average temperature yesterday: 77 °F

High & Low Weather Summary for the Past Weeks

 TemperatureHumidityPressure
High85 °F (Jan 4, 11:56 am)94% (Jan 5, 12:56 am)30.14 "Hg (Jan 5, 12:56 am)
Low72 °F (Jan 10, 5:56 am)55% (Jan 15, 12:56 pm)29.91 "Hg (Jan 10, 2:56 pm)
Average78 °F75%30.05 "Hg
* Reported Dec 31 7:56 pm — Jan 15 7:56 pm, San Juan. Weather by CustomWeather, © 2019

Note: Actual official high and low records may vary slightly from our data, if they occured in-between our weather recording intervals... More about our weather records

Advertising

San Juan Weather History for the Previous 24 Hours

Scroll right to see more
 ConditionsComfort  
Time TempWeatherWind HumidityBarometerVisibility
7:56 pm
Tue, Jan 15
76 °FPassing clouds.7 mph74%30.07 "Hg10 mi
6:56 pm76 °FScattered clouds.9 mph72%30.05 "Hg10 mi
5:56 pm78 °FScattered clouds.12 mph69%30.03 "Hg10 mi
4:56 pm80 °FScattered clouds.15 mph62%30.02 "Hg10 mi
3:56 pm82 °FPassing clouds.16 mph56%30.01 "Hg10 mi
2:56 pm83 °FPassing clouds.17 mph55%30.00 "Hg10 mi
1:56 pm83 °FPassing clouds.14 mph57%30.02 "Hg10 mi
12:56 pm84 °FPassing clouds.13 mph55%30.04 "Hg10 mi
11:56 am83 °FPassing clouds.12 mph61%30.07 "Hg10 mi
10:56 am82 °FPassing clouds.12 mph63%30.09 "Hg10 mi
9:56 am79 °FPassing clouds.8 mph69%30.09 "Hg10 mi
8:56 am77 °FPassing clouds.5 mph69%30.08 "Hg10 mi
7:56 am73 °FPassing clouds.3 mph79%30.06 "Hg10 mi
6:56 am72 °FPassing clouds.3 mph81%30.04 "Hg10 mi
5:56 am72 °FPassing clouds.No wind84%30.02 "Hg10 mi
4:56 am72 °FPassing clouds.No wind87%30.01 "Hg10 mi
3:56 am73 °FPassing clouds.No wind84%30.01 "Hg10 mi
2:56 am74 °FPassing clouds.3 mph85%30.03 "Hg10 mi
1:56 am74 °FPassing clouds.5 mph79%30.04 "Hg10 mi
12:56 am75 °FPassing clouds.3 mph79%30.06 "Hg10 mi
11:56 pm
Mon, Jan 14
76 °FPassing clouds.3 mph80%30.06 "Hg10 mi
10:56 pm77 °FPassing clouds.6 mph74%30.08 "Hg10 mi
9:56 pm76 °FPassing clouds.6 mph77%30.08 "Hg10 mi
Weather by CustomWeather, © 2019

See weather overview